Weather History for Mt. Pocono, PA

Change the Weather History Date:

Thursday, June 13, 2013

  Actual Average Record
Temperature  
Mean Temperature 57 °F 63 °F  
Max Temperature 61 °F 73 °F 88 °F (1984)
Min Temperature 52 °F 53 °F 32 °F (1907)
Degree Days  
Heating Degree Days 8 4  
Month to date heating degree days 55 65  
Since 1 June heating degree days 55 65  
Since 1 July heating degree days 6807 7081  
Cooling Degree Days 0 2  
Month to date cooling degree days 17 18  
Year to date cooling degree days 49 37  
Since 1 June cooling degree days 17 18  
Growing Degree Days 7 (Base 50)    
Moisture  
Dew Point 54 °F    
Average Humidity 86    
Maximum Humidity 100    
Minimum Humidity 72    
Precipitation  
Precipitation 0.93 in 0.16 in 1.76 in (1936)
Month to date precipitation 6.05 2.27  
Year to date precipitation 20.06 19.77  
Sea Level Pressure  
Sea Level Pressure 29.63 in    
Wind  
Wind Speed 10 mph (East)    
Max Wind Speed 18 mph    
Max Gust Speed 26 mph    
Visibility 5 miles    
Events Fog , Rain    
T = Trace of Precipitation, MM = Missing Value Source: NWS Daily Summary

Daily Weather History Graph

Daily Weather History Graph

Search for Another Location

Airport:

Trip Planner

Search our weather history database for the weather conditions in past years. The results will help you decide how hot, cold, wet, or windy it might be!

Date:

Astronomy

Jun. 13, 2013 Rise Set
Actual Time 5:28 AM EDT 8:35 PM EDT
Civil Twilight 4:54 AM EDT 9:08 PM EDT
Nautical Twilight 4:11 AM EDT 9:51 PM EDT
Astronomical Twilight 3:20 AM EDT 10:42 PM EDT
Moon 10:04 AM EDT (6/13) 11:38 PM EDT (6/13)
Length of Visible Light 16h 14m
Length of Day
15h 06m
Waxing Crescent, 21% of the Moon is Illuminated
Jun 13
Waxing Crescent
Jun 16
First Quarter
Jun 23
Full
Jun 30
Last Quarter
Jul 8
New

Hourly Weather History & Observations

Time (EDT) Temp. Dew Point Humidity Pressure Visibility Wind Dir Wind Speed Gust Speed Precip Events Conditions
12:53 AM 57.0 °F 54.0 °F 89% 29.86 in 10.0 mi East 3.5 mph - N/A   Overcast
1:53 AM 57.9 °F 54.0 °F 87% 29.83 in 10.0 mi Calm Calm - N/A   Mostly Cloudy
2:53 AM 59.0 °F 50.0 °F 72% 29.82 in 10.0 mi ESE 3.5 mph - N/A   Scattered Clouds
3:53 AM 61.0 °F 51.1 °F 70% 29.81 in 10.0 mi SSE 6.9 mph - N/A   Overcast
4:53 AM 59.0 °F 53.1 °F 81% 29.80 in 10.0 mi SSE 4.6 mph - 0.00 in Rain Light Rain
5:53 AM 57.9 °F 54.0 °F 87% 29.75 in 10.0 mi ESE 5.8 mph - 0.01 in Rain Light Rain
6:53 AM 57.0 °F 54.0 °F 89% 29.73 in 10.0 mi ESE 8.1 mph - 0.00 in   Mostly Cloudy
7:53 AM 57.0 °F 54.0 °F 89% 29.74 in 10.0 mi ESE 9.2 mph - 0.00 in   Overcast
8:03 AM 57.2 °F 53.6 °F 88% 29.75 in 10.0 mi SE 8.1 mph - N/A   Overcast
8:38 AM 55.4 °F 53.6 °F 94% 29.75 in 4.0 mi SE 9.2 mph - 0.00 in Rain Light Rain
8:41 AM 55.4 °F 53.6 °F 94% 29.74 in 1.8 mi SE 5.8 mph - 0.00 in Rain Rain
8:53 AM 55.9 °F 54.0 °F 93% 29.73 in 3.0 mi SE 10.4 mph - 0.00 in Rain Light Rain
9:00 AM 57.2 °F 53.6 °F 88% 29.73 in 4.0 mi SE 13.8 mph - 0.00 in Rain Light Rain
9:17 AM 55.4 °F 53.6 °F 94% 29.72 in 2.5 mi SE 13.8 mph 21.9 mph N/A Rain Light Rain
9:27 AM 55.4 °F 53.6 °F 94% 29.71 in 4.0 mi SE 10.4 mph 21.9 mph N/A Rain Light Rain
9:48 AM 55.4 °F 55.4 °F 100% 29.68 in 4.0 mi ESE 13.8 mph - N/A Rain Light Rain
9:53 AM 55.9 °F 54.0 °F 93% 29.67 in 5.0 mi ESE 12.7 mph - N/A Rain Light Rain
10:06 AM 55.4 °F 53.6 °F 94% 29.67 in 5.0 mi ESE 13.8 mph - N/A Rain Light Rain
10:53 AM 55.9 °F 54.0 °F 93% 29.62 in 6.0 mi ESE 18.4 mph 24.2 mph N/A   Overcast
11:14 AM 55.4 °F 53.6 °F 94% 29.63 in 1.5 mi SE 17.3 mph 21.9 mph N/A   Overcast
11:20 AM 55.4 °F 55.4 °F 100% 29.63 in 0.2 mi ESE 15.0 mph 23.0 mph N/A Fog Fog
11:53 AM 55.9 °F 55.0 °F 97% 29.62 in 0.2 mi SE 13.8 mph 21.9 mph N/A Fog Fog
12:53 PM 57.0 °F 55.9 °F 96% 29.57 in 0.2 mi ESE 10.4 mph - 0.01 in Fog Fog
1:53 PM 57.0 °F 55.9 °F 96% 29.57 in 0.2 mi Variable 6.9 mph - 0.01 in Fog Fog
2:53 PM 57.9 °F 57.0 °F 97% 29.55 in 0.2 mi ESE 9.2 mph - 0.01 in Fog Fog
3:53 PM 57.9 °F 57.0 °F 97% 29.52 in 0.2 mi ESE 13.8 mph 19.6 mph 0.01 in Fog , Rain Light Rain
4:48 PM 57.2 °F 55.4 °F 94% 29.52 in 1.0 mi East 12.7 mph - 0.01 in Rain Heavy Rain
4:53 PM 57.0 °F 55.9 °F 96% 29.51 in 1.5 mi East 10.4 mph - 0.01 in Rain Light Rain
5:03 PM 57.2 °F 55.4 °F 94% 29.53 in 2.0 mi East 6.9 mph - 0.01 in Rain Light Rain
5:11 PM 57.2 °F 55.4 °F 94% 29.53 in 1.5 mi East 10.4 mph - 0.01 in Rain Rain
5:33 PM 57.2 °F 55.4 °F 94% 29.53 in 3.0 mi East 9.2 mph - 0.01 in Rain Light Rain
5:53 PM 57.0 °F 55.0 °F 93% 29.51 in 10.0 mi East 8.1 mph - 0.01 in   Overcast
6:08 PM 55.4 °F 55.4 °F 100% 29.51 in 10.0 mi East 12.7 mph 19.6 mph 0.01 in   Overcast
6:33 PM 55.4 °F 55.4 °F 100% 29.51 in 10.0 mi ENE 12.7 mph - 0.01 in   Overcast
6:53 PM 55.9 °F 54.0 °F 93% 29.51 in 10.0 mi ENE 15.0 mph - 0.01 in   Overcast
7:53 PM 55.0 °F 53.1 °F 93% 29.53 in 2.5 mi East 11.5 mph - 0.01 in Rain Light Rain
8:03 PM 53.6 °F 53.6 °F 100% 29.53 in 1.2 mi East 12.7 mph 23.0 mph 0.01 in Rain Rain
8:09 PM 53.6 °F 53.6 °F 100% 29.54 in 2.0 mi East 13.8 mph 18.4 mph 0.01 in Rain Light Rain
8:20 PM 53.6 °F 53.6 °F 100% 29.54 in 1.8 mi ENE 11.5 mph - 0.01 in Rain Light Rain
8:28 PM 53.6 °F 51.8 °F 94% 29.53 in 2.5 mi ENE 16.1 mph 20.7 mph 0.01 in Rain Rain
8:39 PM 53.6 °F 51.8 °F 94% 29.53 in 3.0 mi ENE 16.1 mph 20.7 mph 0.01 in Rain Light Rain
8:53 PM 54.0 °F 52.0 °F 93% 29.54 in 4.0 mi ENE 13.8 mph - 0.02 in Rain Light Rain
9:43 PM 53.6 °F 51.8 °F 94% 29.57 in 3.0 mi NE 17.3 mph 20.7 mph N/A Rain Rain
9:50 PM 53.6 °F 51.8 °F 94% 29.57 in 4.0 mi NE 13.8 mph 23.0 mph N/A Rain Rain
9:53 PM 53.1 °F 51.1 °F 93% 29.57 in 4.0 mi ENE 12.7 mph 23.0 mph N/A Rain Rain
10:00 PM 53.6 °F 51.8 °F 94% 29.58 in 5.0 mi ENE 13.8 mph 23.0 mph 0.00 in Rain Rain
10:19 PM 53.6 °F 51.8 °F 94% 29.58 in 6.0 mi NE 13.8 mph - N/A Rain Rain
10:53 PM 53.1 °F 50.0 °F 89% 29.59 in 5.0 mi NE 10.4 mph - N/A Rain Rain
11:53 PM 52.0 °F 48.9 °F 89% 29.61 in 9.0 mi NE 12.7 mph 25.3 mph 0.03 in Rain Light Rain